Tracking 19908 objects as of 18-Oct-2019
HD Live streaming from Space Station
objects crossing your sky now

STTW-T1

Track STTW-T1 now!
10-day predictions
STTW-T1 is classified as:


NORAD ID: 14670
Int'l Code: 1984-008A
Perigee: 479.3 km
Apogee: 6,324.8 km
Inclination: 36.1 °
Period: 160.3 minutes
Semi major axis: 9773 km
RCS: 3.9341 m2 (large)
Launch date: January 29, 1984
Source: People's Republic of China (PRC)
Launch site: Xichang Space Center, China (XSC)
aabbcc
Your satellite tracking list
Your tracking list is empty




NASA's NSSDC Master Catalog

Two Line Element Set (TLE):
1 14670U 84008A   19290.45761116  .00000031  00000-0  30813-4 0  9993
2 14670  36.1152 294.7175 2990658 129.1711 261.4965  8.98584342164447
Source of the keplerian elements: AFSPC